Weather in Freeport

Bahamas     26°31′54″N   78°37′49″W
temp.,
°C
wind,
m/s
gust,
m/s
humid.,
%
clouds,
%
prec.,
mm/h
press.,
hPa
HPBL,
m
26 january, tue
tue2601:00+24s6780100 0.1 1018639
04:00+23s5682100 0.0 1017645
07:00+23s567988 0.0 1018661
10:00+23s78781 0.0 1019729
13:00+24s78780 0.0 1018693
16:00+23s67780 0.0 1017620
19:00+23s457936 0.0 1018544
22:00+24s457832 0.0 1019441
27 january, wed
wed2701:00+24sse568116 0.0 1018434
04:00+24s34830 0.0 1017474
07:00+24ssw35800 0.0 1018611
10:00+24ssw56813 0.1 1020611
13:00+24sw57789 0.1 1018646
16:00+24sw578132 0.0 1017671
19:00+24ssw568425 0.0 1018360
22:00+24sw67840 0.0 1018389
28 january, thu
thu2801:00+24wsw68840 0.0 1017358
04:00+24w810770 0.0 1016675
07:00+24wnw1112841 0.2 1017904
10:00+22nnw14158195 0.6 1020921
13:00+19n14156963 0.6 10211123
16:00+18n1315760 0.0 10221202
19:00+18nne1315730 0.0 10231293
22:00+17nne1214760 0.1 10241307
29 january, fri
fri2901:00+17nne10127236 0.1 10231295
04:00+18nne10107036 0.1 10221288
07:00+17ne897268 0.1 10241162
10:00+17ne8971100 0.1 10251150
13:00+18ne7867100 0.2 10241196
16:00+18ne8873100 0.1 10231014
19:00+18ne676696 0.2 10241212
22:00+18ne6768100 0.1 10251135
30 january, sat
sat3001:00+18ene6665100 0.1 10231220
04:00+18ene6765100 0.0 10231208
07:00+18ene7763100 0.0 10231292
10:00+19e896677 0.0 10241336
13:00+20e886887 0.1 10231221
16:00+20e676464 0.0 10221233
19:00+20ese997169 0.2 10221226
22:00+21ese8971100 0.3 10221149